Simultaneous Nadir Overpasses (SNOs) Predictions

Prediction of SNOs between METOP-A and NOAA-19 Satellite Orbit:

Table of predicted SNOs for the next 14.0 days since TLE Epoch: 5/11/2012
Index Date (METOP-A) Time (METOP-A) METOP-A Lat,Lon Date (NOAA-19) Time (NOAA-19) NOAA-19 Lat,Lon Distance(km) Time Diff (sec)
1 05/16/2012 18:06:03 73.55, -97.89 05/16/2012 18:04:53 73.54, -99.82 60.73 70
2 05/16/2012 18:56:54 -73.09, 68.41 05/16/2012 18:55:43 -73.12, 68.42 2.96 71
3 05/16/2012 19:47:34 73.08,-124.28 05/16/2012 19:46:49 73.08,-124.28 0.22 45
4 05/16/2012 20:38:16 -73.07, 43.02 05/16/2012 20:37:47 -73.05, 43.04 2.21 29
5 05/16/2012 21:28:56 73.06,-149.67 05/16/2012 21:28:54 73.07,-149.77 3.52 2
6 05/16/2012 22:19:38 -73.05, 17.64 05/16/2012 22:19:52 -73.04, 17.55 3.30 14
7 05/16/2012 23:10:19 72.99,-175.16 05/16/2012 23:10:58 73.00,-175.15 1.36 39
8 05/17/2012 00:01:01 -72.98, -7.85 05/17/2012 00:01:56 -72.97, -7.82 1.47 55
9 05/17/2012 00:51:46 72.66, 158.82 05/17/2012 00:52:57 72.74, 159.90 36.49 71




NCC Satellite Simultaneous Nadir Overpasses (SNOs) Prediction Service
